Location: Colonia Mina de C?rbuni
(46.1667°N, 22.7167°E)
Time: 15:20:37
(UTC+00:00)

Courier 1B - Pass Details

Date: 28 April 2024
Orbit: 962 x 1208 km, 28.3° (Epoch: 23 May)

Event Time Altitude Azimuth Distance (km) Brightness Sun altitude
Rises 01:11:51 0° 249° (WSW) 4,060 - -19.1°
Reaches altitude 10° 01:16:22 10° 226° (SW) 3,054 - -18.5°
Maximum altitude 01:19:55 14° 198° (SSW) 2,720 - -18.1°
Exits shadow 01:22:12 12° 178° (S) 2,820 9.5 -17.8°
Drops below altitude 10° 01:23:24 10° 169° (SSE) 2,969 9.7 -17.7°
Sets 01:27:41 0° 145° (SE) 3,867 10.5 -17.1°
